Location: Heisede
(52.2582°N, 9.8523°E)
Time: 14:12:51
(UTC+00:00)

COSMO-SKYMED 1 - Visible Passes

Search period start: 19 April 2026 00:00
Search period end: 29 April 2026 00:00
Orbit: 576 x 578 km, 97.9° (Epoch: 19 April)

Date Brightness Start Highest point End Pass type
(mag) Time Alt. Az. Time Alt. Az. Time Alt. Az.
19 Apr 5.2 19:13:42 10° N 19:17:03 25° WNW 19:20:23 10° WSW visible
20 Apr 6.5 03:00:56 10° ENE 03:01:30 10° NE 03:02:03 10° NE visible
20 Apr 5.3 19:17:41 10° N 19:20:56 23° WNW 19:24:11 10° WSW visible
21 Apr 6.4 03:04:13 10° ENE 03:05:21 11° NE 03:06:30 10° NE visible
21 Apr 5.5 19:21:41 10° N 19:24:49 21° WNW 19:27:57 10° WSW visible
22 Apr 6.3 03:07:42 10° ENE 03:09:13 12° NE 03:10:43 10° NNE visible
22 Apr 5.6 19:25:40 10° NNW 19:28:41 20° WNW 19:31:43 10° WSW visible
23 Apr 6.1 03:11:17 10° E 03:13:04 13° NE 03:14:52 10° NNE visible
23 Apr 5.7 19:29:40 10° NNW 19:32:34 19° WNW 19:35:27 10° WSW visible
24 Apr 6.1 03:14:53 10° E 03:16:55 14° NE 03:18:58 10° NNE visible
24 Apr 5.7 19:33:41 10° NNW 19:36:26 18° WNW 19:39:10 10° W visible
25 Apr 6.0 03:18:33 10° E 03:20:48 14° NE 03:23:02 10° NNE visible
25 Apr 5.8 19:37:41 10° NNW 19:40:17 16° WNW 19:42:53 10° W visible
26 Apr 5.9 03:22:13 10° E 03:24:38 15° ENE 03:27:05 10° NNE visible
26 Apr 5.8 19:41:43 10° NNW 19:44:09 15° WNW 19:46:34 10° W visible
27 Apr 5.9 19:45:45 10° NNW 19:48:00 14° NW 19:50:14 10° W visible
28 Apr 6.0 19:49:49 10° NNW 19:51:51 13° NW 19:53:52 10° W visible
